STARLINK-34647, 64904

Orbit data source: Space-Track

STARLINK-34647, 64904 is a payload satellite owned by SpaceX/Seattle (US) in LEO that was launched on Sat, 26 Jul 2025 UTC via an FALCON 9 launch vehicle from the Air Force Eastern Test Range (AFETR). Payload-class satellites include a variety of spacecraft equipped with specific instruments for various scientific and technological missions. These include communications satellites like Starlink; space stations such as the ISS; scientific satellites like the Hubble; Earth observation satellites from companies like Planet Labs, Umbra, and HawkEye 360; GPS; miniature CubeSats for education and research; and military/defense satellites.

Loading next visibility...
Identifier
64904, 2025-157A
Orbit
LEO
Country
Flag of USUS
Related business
Manufacturer
SpaceX/Seattle
Mission
Operational Commercial Communications
Bus & Motor
STARLINK V2MO, Unknown motor
Mass
575 kg wet, ~530 kg dry
Launch date (UTC)
2025-07-26 (4 months ago)
Launch vehicle
FALCON 9
Launch site
Air Force Eastern Test Range (AFETR)
Object type
Payload
Rocket body
Debris
Shape & HBR
Box + 2 Pan, 17.7 m
Radar Cross Section
36.964 m², Large (>1 m²)

Expand to show TLE details & history
Last TLE update: 13 hours ago

TLE from 13 hours ago
0 STARLINK-34647
1 64904U 25157A   25340.63057770  .00097198  00000-0  24005-2 0  9999
2 64904  53.1593  62.3571 0001662  95.0898 265.0297 15.39728408 21819
Epoch: 2025-12-06T15:08Z
TLE epoch observation values (Epoch: 2025-12-06T15:08:01.913Z)
Latitude
0.00002°
Longitude
119.69359°
Altitude
447.914 km
Speed
7.645 km/s
True Right ascension
04h 09m 25s
True Declination
0° 00' 00"
Sunlit
Object was in full shadow at epoch
Visualization orbit readout
Latitude
Unknown
Longitude
Unknown
Altitude
Unknown
Speed
Unknown
Apparent Right ascension
Unknown
Apparent Declination
Unknown
Sunlit
N/A
Visualization observer readout
Local Sidereal Time
02:31:51
Azimuth
Unknown
Elevation
Unknown
Doppler factor
Unknown
Orbital elements
Apogee altitude
448.304 km
Perigee altitude
446.035 km
Semi-major axis
6,825.306 km
Eccentricity
0.00017
Inclination
53.1593°
RAAN
62.3571°
Arg. of periapsis
95.0898°
True anomaly
265.01073°
Mean anomaly
265.0297°
Eccentric anomaly
265.02021°
Mean motion
3.84911 °/min
Orbital period
93.53 mins
BSTAR
0.0024005
Loading maneuver chart data...
Computing Atmospheric mass density...
Loading historical data...
Loading historical data...
Loading historical data...
Loading historical data...
Loading historical data...
Loading historical data...
Loading historical data...

Documentation

Showing up to 5 results
|